Weather in Roshchino

Russia / Sakhalin District     49°57′25″N   142°45′59″E
temp.,
°C
wind,
m/s
gust,
m/s
humid.,
%
clouds,
%
prec.,
mm/h
press.,
hPa
HPBL,
m
9 may, sun
sun923:00+4n2387100 0.0 100356
02:00+3n239380 0.0 100564
05:00+2nnw359463 0.0 1005120
08:00+4n348355 0.0 1006258
11:00+9ne2457100 0.0 1005890
14:00+12ene344518 0.0 10041257
17:00+12ene555095 0.0 10031282
20:00+8ne356773 0.0 1004450
10 may, mon
mon1023:00+4n478190 0.0 1005328
02:00+2n588797 0.0 1005299
05:00+1n5883100 0.0 1005296
08:00+2n587897 0.0 1006341
11:00+3n5873100 0.0 1006610
14:00+7nne4763100 0.0 1006954
17:00+6ne4763100 0.0 1008966
20:00+3ne4666100 0.0 1011758
11 may, tue
tue1123:000nnw2476100 0.0 101392
02:00−1nnw4776100 0.0 1014210
05:00−2nnw377950 0.0 1015178
08:00+1n455979 0.0 1016279
11:00+7nne343754 0.0 1016966
14:00+11ene333236 0.0 10151614
17:00+11e433525 0.0 10151618
20:00+6se355599 0.0 1017325
12 may, wed
wed1223:00+1sse24765 0.0 102085
02:00−1sse11852 0.0 102019
05:00−2s11882 0.0 102113
08:00+2se11654 0.0 1021254
11:00+9se22418 0.0 1019878
14:00+13se34351 0.0 10171456
17:00+12sse664414 0.0 10161305
20:00+7sse576032 0.0 1017383
13 may, thu
thu1323:00+1s3686100 0.0 1017129
02:000sse2590100 0.0 1016106
05:000sse3691100 0.0 1015140
08:00+2sse4679100 0.0 1014261
11:00+7sse5865100 0.1 1012762
14:00+4sse6993100 0.3 1011527
17:00+5sse5891100 0.3 1010512
20:00+4se3797100 0.0 1011376